| time (UTC) | temp F | wind direction | speed MPH | gust MPH | rain 1hr in | rain 24hr in | rain mn in | humidity % | barometer mb |
| 20260905203019 | 66 | 22 | 10.0 | 0.0 | 0.00 | 0.00 | 0.00 | 78 | 1100.1 |
| 20260905201635 | 66 | 52 | 8.0 | 0.0 | 0.00 | 0.00 | 0.00 | 78 | 1100.1 |
| 20260905193020 | 66 | 44 | 7.0 | 0.0 | 0.00 | 0.00 | 0.00 | 81 | 1100.1 |
| 20260905191508 | 66 | 348 | 6.0 | 0.0 | 0.00 | 0.00 | 0.00 | 82 | 1100.1 |
| 20260905190111 | 67 | 31 | 9.0 | 0.0 | 0.00 | 0.00 | 0.00 | 82 | 1100.1 |
| 20260905184655 | 67 | 34 | 7.0 | 0.0 | 0.00 | 0.00 | 0.00 | 80 | 1100.1 |
| 20260905181634 | 67 | 28 | 7.0 | 0.0 | 0.00 | 0.00 | 0.00 | 78 | 1100.1 |
| 20260905180131 | 67 | 57 | 8.0 | 0.0 | 0.00 | 0.00 | 0.00 | 78 | 1100.1 |
| 20260905174646 | 68 | 36 | 7.0 | 0.0 | 0.00 | 0.00 | 0.00 | 78 | 1100.1 |
| 20260905171637 | 68 | 5 | 7.0 | 0.0 | 0.00 | 0.00 | 0.00 | 79 | 1100.1 |
| 20260905164633 | 68 | 5 | 9.0 | 0.0 | 0.00 | 0.00 | 0.00 | 78 | 1100.1 |
| 20260905163103 | 68 | 40 | 9.0 | 0.0 | 0.00 | 0.00 | 0.00 | 78 | 1100.1 |
| 20260905161621 | 68 | 17 | 11.0 | 0.0 | 0.00 | 0.00 | 0.00 | 78 | 1100.1 |
| 20260905160138 | 68 | 360 | 9.0 | 0.0 | 0.00 | 0.00 | 0.00 | 77 | 1100.1 |
| 20260905153117 | 69 | 5 | 10.0 | 0.0 | 0.00 | 0.00 | 0.00 | 76 | 1100.1 |
| 20260905151646 | 70 | 346 | 9.0 | 0.0 | 0.00 | 0.00 | 0.00 | 74 | 1100.1 |
| 20260905150145 | 70 | 10 | 8.0 | 0.0 | 0.00 | 0.00 | 0.00 | 74 | 1100.1 |
| 20260905144613 | 69 | 17 | 9.0 | 0.0 | 0.00 | 0.00 | 0.00 | 74 | 1100.1 |
| 20260905143008 | 70 | 15 | 8.0 | 0.0 | 0.00 | 0.00 | 0.00 | 74 | 1100.1 |
| 20260905141502 | 69 | 5 | 9.0 | 0.0 | 0.00 | 0.00 | 0.00 | 75 | 1100.1 |
| 20260905140140 | 69 | 11 | 9.0 | 0.0 | 0.00 | 0.00 | 0.00 | 76 | 1100.1 |
| 20260905134505 | 69 | 29 | 8.0 | 0.0 | 0.00 | 0.00 | 0.00 | 78 | 1100.1 |
| 20260905124514 | 68 | 360 | 7.0 | 0.0 | 0.00 | 0.00 | 0.00 | 78 | 1100.1 |
| 20260905121631 | 66 | 236 | 5.0 | 0.0 | 0.00 | 0.00 | 0.00 | 81 | 1100.1 |
| 20260905110156 | 61 | 236 | 0.0 | 0.0 | 0.00 | 0.00 | 0.00 | 87 | 1100.1 |
| 20260905103145 | 60 | 236 | 1.0 | 0.0 | 0.00 | 0.00 | 0.00 | 87 | 1100.1 |
| 20260905101515 | 61 | 236 | 0.0 | 0.0 | 0.00 | 0.00 | 0.00 | 88 | 1100.1 |
| 20260905100133 | 60 | 236 | 1.0 | 0.0 | 0.00 | 0.00 | 0.00 | 88 | 1100.1 |
| 20260905093101 | 60 | 236 | 0.0 | 0.0 | 0.00 | 0.00 | 0.00 | 89 | 1100.1 |
| 20260905091505 | 60 | 236 | 0.0 | 0.0 | 0.00 | 0.00 | 0.00 | 89 | 1100.1 |
| 20260905090011 | 60 | 236 | 0.0 | 0.0 | 0.00 | 0.00 | 0.00 | 89 | 1100.1 |
| 20260905083004 | 60 | 235 | 0.0 | 0.0 | 0.00 | 0.00 | 0.00 | 89 | 1100.1 |
| 20260905081511 | 60 | 360 | 0.0 | 0.0 | 0.00 | 0.00 | 0.00 | 88 | 1100.1 |
| 20260905073116 | 61 | 234 | 0.0 | 0.0 | 0.00 | 0.00 | 0.00 | 88 | 1100.1 |
| 20260905071649 | 61 | 360 | 0.0 | 0.0 | 0.00 | 0.00 | 0.00 | 89 | 1100.1 |
| 20260905070124 | 61 | 234 | 0.0 | 0.0 | 0.00 | 0.00 | 0.00 | 89 | 1100.1 |
| 20260905064624 | 61 | 360 | 0.0 | 0.0 | 0.00 | 0.00 | 0.00 | 89 | 1100.1 |
| 20260905061513 | 62 | 236 | 0.0 | 0.0 | 0.00 | 0.00 | 0.00 | 90 | 1100.1 |
| 20260905060021 | 62 | 236 | 0.0 | 0.0 | 0.00 | 0.00 | 0.00 | 91 | 1100.1 |
| 20260905051516 | 62 | 360 | 0.0 | 0.0 | 0.00 | 0.00 | 0.00 | 91 | 1100.1 |
| 20260905034615 | 64 | 236 | 0.0 | 0.0 | 0.00 | 0.00 | 0.01 | 90 | 1100.1 |
| 20260905031552 | 64 | 236 | 0.0 | 0.0 | 0.00 | 0.00 | 0.01 | 90 | 1100.1 |
| 20260905031506 | 64 | 236 | 0.0 | 0.0 | 0.00 | 0.00 | 0.01 | 90 | 1100.1 |
| 20260905014629 | 66 | 236 | 0.0 | 0.0 | 0.00 | 0.00 | 0.01 | 89 | 1100.1 |
| 20260905004505 | 68 | 236 | 0.0 | 0.0 | 0.00 | 0.00 | 0.01 | 86 | 1100.1 |
| 20260905003112 | 68 | 236 | 0.0 | 0.0 | 0.00 | 0.00 | 0.01 | 85 | 1100.1 |
| 20260904234538 | 69 | 236 | 0.0 | 0.0 | 0.00 | 0.00 | 0.01 | 83 | 1100.1 |
| 20260904231655 | 71 | 236 | 0.0 | 0.0 | 0.00 | 0.00 | 0.01 | 80 | 1100.1 |
| 20260904230126 | 71 | 236 | 0.0 | 0.0 | 0.00 | 0.00 | 0.01 | 78 | 1100.1 |
| 20260904223153 | 74 | 236 | 2.0 | 0.0 | 0.00 | 0.00 | 0.01 | 76 | 1100.1 |
| 20260904221509 | 74 | 236 | 0.0 | 0.0 | 0.00 | 0.00 | 0.01 | 79 | 1100.1 |
| 20260904220011 | 76 | 236 | 0.0 | 0.0 | 0.00 | 0.00 | 0.01 | 74 | 1100.1 |
| 20260904213145 | 77 | 236 | 1.0 | 0.0 | 0.00 | 0.00 | 0.01 | 73 | 1100.1 |
| 20260904204649 | 75 | 236 | 0.0 | 0.0 | 0.00 | 0.00 | 0.01 | 77 | 1100.1 |